EZY157P EGAC-EGPH

Flight info

Callsign EZY157P
Flight time 0h 32m
Altitude 15000
Route MAGEE DCT BLACA P600 TUNSO
Aircraft A320/M-SDE3FGHIRWY/LB1

Departure

Time 2026-05-07 18:37
Airport George Best Belfast City Airport (EGAC)

Arrival

Time 2026-05-07 19:09
Airport Edinburgh Airport (EGPH)
Time Latitude Longitude Altitude Speed Heading
2026-05-07 18:06 54.61500 -5.87145 21 ft 0 kts 155°
2026-05-07 18:28 54.61516 -5.87155 24 ft 2 kts 165°
2026-05-07 18:28 54.61538 -5.87170 23 ft 4 kts 129°
2026-05-07 18:28 54.61541 -5.87202 23 ft 4 kts 55°
2026-05-07 18:28 54.61524 -5.87233 26 ft 2 kts 35°
2026-05-07 18:29 54.61522 -5.87234 26 ft 1 kts 35°
2026-05-07 18:30 54.61522 -5.87235 26 ft 0 kts 35°
2026-05-07 18:31 54.61535 -5.87219 23 ft 7 kts 35°
2026-05-07 18:31 54.61575 -5.87171 21 ft 6 kts 35°
2026-05-07 18:32 54.61608 -5.87131 21 ft 5 kts 35°
2026-05-07 18:32 54.61641 -5.87090 21 ft 8 kts 35°
2026-05-07 18:32 54.61698 -5.87022 21 ft 10 kts 35°
2026-05-07 18:32 54.61748 -5.86992 21 ft 7 kts 352°
2026-05-07 18:33 54.61758 -5.87000 21 ft 0 kts 329°
2026-05-07 18:33 54.61758 -5.87001 21 ft 1 kts 329°
2026-05-07 18:34 54.61776 -5.87027 22 ft 6 kts 314°
2026-05-07 18:34 54.61804 -5.87103 18 ft 13 kts 302°
2026-05-07 18:34 54.61872 -5.87170 19 ft 11 kts 18°
2026-05-07 18:34 54.61955 -5.87078 16 ft 19 kts 34°
2026-05-07 18:35 54.62096 -5.86911 16 ft 30 kts 34°
2026-05-07 18:35 54.62267 -5.86704 20 ft 30 kts 36°
2026-05-07 18:35 54.62401 -5.86556 24 ft 16 kts 11°
2026-05-07 18:35 54.62476 -5.86496 20 ft 10 kts 92°
2026-05-07 18:36 54.62446 -5.86491 20 ft 5 kts 216°
2026-05-07 18:36 54.62425 -5.86515 21 ft 2 kts 214°
2026-05-07 18:36 54.62422 -5.86519 22 ft 0 kts 214°
2026-05-07 18:36 54.62420 -5.86521 22 ft 3 kts 214°
2026-05-07 18:37 54.62252 -5.86721 21 ft 68 kts 214°
2026-05-07 18:37 54.61674 -5.87407 26 ft 130 kts 212°
2026-05-07 18:37 54.60924 -5.88380 636 ft 131 kts 213°
2026-05-07 18:37 54.60170 -5.89332 1150 ft 141 kts 212°
2026-05-07 18:38 54.59297 -5.90374 1424 ft 164 kts 213°
2026-05-07 18:38 54.58248 -5.91415 1734 ft 185 kts 196°
2026-05-07 18:38 54.56912 -5.91268 2066 ft 212 kts 156°
2026-05-07 18:38 54.55838 -5.89368 2442 ft 245 kts 116°
2026-05-07 18:39 54.55649 -5.86341 2993 ft 269 kts 78°
2026-05-07 18:39 54.56570 -5.83533 3803 ft 276 kts 41°
2026-05-07 18:39 54.58198 -5.81781 4714 ft 277 kts 22°
2026-05-07 18:39 54.59986 -5.80494 5586 ft 280 kts 20°
2026-05-07 18:40 54.61806 -5.79207 6468 ft 285 kts 20°
2026-05-07 18:40 54.63664 -5.77897 7239 ft 291 kts 20°
2026-05-07 18:40 54.65532 -5.76492 8059 ft 296 kts 26°
2026-05-07 18:40 54.67326 -5.74710 8894 ft 300 kts 31°
2026-05-07 18:41 54.69076 -5.72706 9736 ft 304 kts 34°
2026-05-07 18:41 54.70797 -5.70636 10482 ft 307 kts 34°
2026-05-07 18:41 54.72562 -5.68504 11211 ft 311 kts 34°
2026-05-07 18:41 54.74359 -5.66363 11937 ft 316 kts 33°
2026-05-07 18:42 54.76198 -5.64201 12474 ft 328 kts 34°
2026-05-07 18:42 54.77985 -5.61530 12645 ft 352 kts 47°
2026-05-07 18:42 54.79499 -5.58056 12877 ft 370 kts 60°
2026-05-07 18:42 54.80568 -5.53961 13427 ft 376 kts 72°
2026-05-07 18:43 54.81444 -5.49658 14053 ft 381 kts 72°
2026-05-07 18:43 54.82335 -5.45308 14643 ft 386 kts 72°
2026-05-07 18:43 54.83246 -5.40860 14871 ft 396 kts 72°
2026-05-07 18:43 54.84167 -5.36365 14938 ft 409 kts 72°
2026-05-07 18:44 54.85138 -5.31600 14938 ft 427 kts 72°
2026-05-07 18:44 54.86140 -5.26698 14937 ft 433 kts 71°
2026-05-07 18:44 54.87442 -5.21970 14945 ft 436 kts 60°
2026-05-07 18:44 54.89218 -5.17700 14945 ft 437 kts 49°
2026-05-07 18:45 54.91407 -5.14035 14949 ft 439 kts 38°
2026-05-07 18:45 54.93942 -5.11085 14944 ft 439 kts 27°
2026-05-07 18:45 54.96668 -5.08699 14939 ft 439 kts 25°
2026-05-07 18:45 54.99399 -5.06335 14941 ft 439 kts 25°
2026-05-07 18:46 55.02093 -5.03994 14940 ft 439 kts 25°
2026-05-07 18:46 55.04825 -5.01616 14945 ft 439 kts 25°
2026-05-07 18:46 55.07471 -4.98975 14941 ft 439 kts 34°
2026-05-07 18:46 55.09830 -4.95580 14942 ft 440 kts 45°
2026-05-07 18:47 55.11816 -4.91532 14935 ft 439 kts 55°
2026-05-07 18:47 55.12900 -4.88559 14940 ft 438 kts 62°
2026-05-07 18:47 55.14195 -4.83760 14947 ft 436 kts 68°
2026-05-07 18:47 55.15810 -4.77251 14956 ft 436 kts 68°
2026-05-07 18:48 55.16611 -4.74025 14953 ft 436 kts 68°
2026-05-07 18:48 55.18211 -4.67575 14960 ft 436 kts 68°
2026-05-07 18:48 55.19415 -4.62709 14947 ft 436 kts 68°
2026-05-07 18:48 55.20619 -4.57837 14940 ft 436 kts 68°
2026-05-07 18:49 55.21423 -4.54577 14885 ft 426 kts 68°
2026-05-07 18:49 55.22782 -4.50069 14587 ft 415 kts 58°
2026-05-07 18:49 55.24309 -4.45896 14099 ft 410 kts 58°
2026-05-07 18:49 55.25846 -4.41718 13569 ft 406 kts 58°
2026-05-07 18:50 55.27373 -4.37576 12980 ft 403 kts 58°
2026-05-07 18:50 55.28887 -4.33473 12424 ft 398 kts 58°
2026-05-07 18:50 55.30386 -4.29399 12015 ft 396 kts 58°
2026-05-07 18:50 55.31876 -4.25342 11931 ft 395 kts 58°
2026-05-07 18:51 55.33365 -4.21274 11953 ft 396 kts 58°
2026-05-07 18:51 55.34852 -4.17195 11961 ft 396 kts 57°
2026-05-07 18:51 55.36338 -4.13117 11954 ft 396 kts 58°
2026-05-07 18:51 55.37821 -4.09036 11953 ft 396 kts 58°
2026-05-07 18:52 55.39301 -4.04954 11958 ft 396 kts 58°
2026-05-07 18:52 55.40781 -4.00868 11958 ft 396 kts 58°
2026-05-07 18:52 55.42238 -3.96839 11857 ft 393 kts 58°
2026-05-07 18:52 55.43697 -3.92796 11275 ft 390 kts 58°
2026-05-07 18:53 55.45144 -3.88783 10703 ft 386 kts 58°
2026-05-07 18:53 55.46579 -3.84798 10136 ft 383 kts 58°
2026-05-07 18:53 55.47999 -3.80848 9557 ft 379 kts 58°
2026-05-07 18:53 55.49404 -3.76930 8937 ft 376 kts 58°
2026-05-07 18:54 55.50792 -3.73047 8323 ft 373 kts 58°
2026-05-07 18:54 55.52169 -3.69187 7992 ft 372 kts 58°
2026-05-07 18:54 55.53545 -3.65325 7949 ft 372 kts 58°
2026-05-07 18:54 55.54923 -3.61457 7959 ft 372 kts 58°
2026-05-07 18:55 55.56284 -3.57635 7960 ft 372 kts 58°
2026-05-07 18:55 55.57661 -3.53770 7964 ft 372 kts 58°
2026-05-07 18:55 55.59037 -3.49898 7962 ft 369 kts 58°
2026-05-07 18:55 55.60364 -3.46166 7960 ft 348 kts 58°
2026-05-07 18:56 55.61612 -3.42643 7963 ft 329 kts 59°
2026-05-07 18:56 55.62792 -3.39304 7962 ft 312 kts 59°
2026-05-07 18:56 55.63913 -3.36128 7954 ft 297 kts 59°
2026-05-07 18:56 55.64975 -3.33116 7955 ft 282 kts 59°
2026-05-07 18:57 55.66006 -3.30186 7961 ft 279 kts 59°
2026-05-07 18:57 55.67027 -3.27271 7961 ft 278 kts 59°
2026-05-07 18:57 55.68032 -3.24391 7944 ft 278 kts 60°
2026-05-07 18:57 55.69048 -3.21488 7622 ft 276 kts 60°
2026-05-07 18:58 55.70062 -3.18597 7284 ft 275 kts 60°
2026-05-07 18:58 55.71134 -3.15811 6983 ft 273 kts 49°
2026-05-07 18:58 55.72529 -3.13631 6866 ft 263 kts 32°
2026-05-07 18:58 55.74162 -3.12107 6226 ft 273 kts 21°
2026-05-07 18:59 55.75975 -3.10791 5369 ft 290 kts 20°
2026-05-07 18:59 55.77912 -3.09444 4472 ft 308 kts 20°
2026-05-07 18:59 55.80037 -3.07988 4101 ft 337 kts 19°
2026-05-07 18:59 55.82175 -3.06521 3994 ft 320 kts 20°
2026-05-07 19:00 55.84185 -3.05139 4007 ft 300 kts 20°
2026-05-07 19:00 55.86046 -3.03853 4009 ft 282 kts 20°
2026-05-07 19:00 55.87820 -3.02630 4011 ft 265 kts 20°
2026-05-07 19:00 55.89493 -3.01474 4013 ft 253 kts 19°
2026-05-07 19:01 55.91118 -3.00332 4013 ft 250 kts 20°
2026-05-07 19:01 55.92730 -2.99199 4013 ft 248 kts 19°
2026-05-07 19:01 55.94288 -2.98089 4008 ft 234 kts 20°
2026-05-07 19:01 55.95762 -2.97036 4010 ft 225 kts 20°
2026-05-07 19:02 55.97192 -2.96008 4030 ft 214 kts 20°
2026-05-07 19:02 55.98517 -2.95059 4005 ft 197 kts 16°
2026-05-07 19:02 55.99793 -2.94942 3909 ft 178 kts 340°
2026-05-07 19:02 56.00916 -2.95612 3772 ft 169 kts 332°
2026-05-07 19:03 56.01966 -2.96445 3617 ft 162 kts 325°
2026-05-07 19:03 56.02856 -2.97582 3404 ft 152 kts 297°
2026-05-07 19:03 56.03254 -2.99223 3202 ft 142 kts 275°
2026-05-07 19:03 56.03424 -3.00943 3061 ft 141 kts 270°
2026-05-07 19:04 56.03555 -3.02683 3013 ft 141 kts 270°
2026-05-07 19:04 56.03676 -3.04419 3012 ft 142 kts 270°
2026-05-07 19:04 56.03794 -3.06294 3030 ft 160 kts 270°
2026-05-07 19:04 56.03916 -3.08299 3021 ft 162 kts 269°
2026-05-07 19:05 56.04046 -3.10280 3025 ft 161 kts 270°
2026-05-07 19:05 56.04176 -3.12255 3021 ft 162 kts 270°
2026-05-07 19:05 56.04215 -3.14242 3007 ft 156 kts 249°
2026-05-07 19:05 56.03514 -3.15595 2884 ft 154 kts 205°
2026-05-07 19:06 56.02566 -3.16417 2680 ft 151 kts 217°
2026-05-07 19:06 56.01176 -3.19239 2316 ft 152 kts 232°
2026-05-07 19:06 56.00589 -3.20809 2090 ft 152 kts 233°
2026-05-07 19:07 56.00023 -3.22414 1883 ft 153 kts 234°
2026-05-07 19:07 55.99477 -3.24003 1672 ft 152 kts 234°
2026-05-07 19:07 55.98950 -3.25560 1464 ft 141 kts 233°
2026-05-07 19:07 55.98455 -3.27022 1279 ft 136 kts 234°
2026-05-07 19:08 55.97972 -3.28450 1088 ft 134 kts 234°
2026-05-07 19:08 55.97495 -3.29862 911 ft 132 kts 236°
2026-05-07 19:08 55.97018 -3.31284 723 ft 134 kts 238°
2026-05-07 19:08 55.96551 -3.32705 560 ft 131 kts 234°
2026-05-07 19:09 55.96069 -3.34096 369 ft 136 kts 236°
2026-05-07 19:09 55.95587 -3.35519 203 ft 133 kts 236°
2026-05-07 19:09 55.95133 -3.36849 113 ft 104 kts 238°
2026-05-07 19:09 55.94897 -3.37549 113 ft 46 kts 239°
2026-05-07 19:10 55.94758 -3.37961 113 ft 26 kts 238°
2026-05-07 19:10 55.94671 -3.38020 113 ft 12 kts 154°
2026-05-07 19:10 55.94611 -3.37971 115 ft 2 kts 154°
2026-05-07 19:10 55.94604 -3.37963 113 ft 1 kts 145°
2026-05-07 19:11 55.94590 -3.37923 113 ft 6 kts 109°
2026-05-07 19:11 55.94589 -3.37916 115 ft 6 kts 104°
2026-05-07 19:11 55.94607 -3.37836 111 ft 9 kts 57°
2026-05-07 19:11 55.94641 -3.37740 116 ft 10 kts 58°
2026-05-07 19:12 55.94678 -3.37627 114 ft 11 kts 60°
2026-05-07 19:12 55.94723 -3.37496 115 ft 13 kts 58°
2026-05-07 19:12 55.94767 -3.37370 115 ft 11 kts 58°
2026-05-07 19:12 55.94805 -3.37257 111 ft 10 kts 59°
2026-05-07 19:13 55.94844 -3.37138 114 ft 13 kts 60°
2026-05-07 19:13 55.94891 -3.36997 113 ft 13 kts 57°
2026-05-07 19:13 55.94931 -3.36884 114 ft 9 kts 62°
2026-05-07 19:13 55.94914 -3.36806 113 ft 7 kts 151°
2026-05-07 19:14 55.94869 -3.36780 115 ft 8 kts 166°
2026-05-07 19:14 55.94807 -3.36777 116 ft 10 kts 181°
2026-05-07 19:14 55.94736 -3.36739 114 ft 11 kts 167°
2026-05-07 19:14 55.94653 -3.36735 116 ft 13 kts 179°
2026-05-07 19:15 55.94591 -3.36733 116 ft 6 kts 176°
2026-05-07 19:15 55.94572 -3.36683 116 ft 5 kts 95°
2026-05-07 19:15 55.94572 -3.36639 116 ft 3 kts 89°
2026-05-07 19:15 55.94572 -3.36624 116 ft 0 kts 89°
2026-05-07 19:17 55.94572 -3.36625 116 ft 0 kts 89°